sat.trackr.live / text

‹ back to catalog

STARLINK-32435

NORAD 61259 · 2024-175S

PAYLOAD ACTIVE UNKNOWN

§ Identity

Operator
Country
US
Launch date
2024-09-25
Launch site
AFWTR
Launch vehicle
Mass (kg)
RCS (m²)

Purposes: comms

External: N2YO · Heavens-Above · Gunter

§ Orbital elements

Epoch: 2026-09-21T13:08:05.924256Z

Period
93.85 min
Inclination
53.1597°
Eccentricity
0.0001047
Mean motion
15.34390684 rev/d
Perigee alt
462.0 km
Apogee alt
463.4 km
Semi-major
6,840.9 km
B*
-1.2011e-5
RAAN
0.5190°
Arg perigee
85.8923°
Mean anomaly
274.2200°
Rev number
11,149

§ Raw data

STARLINK-324351 61259U 24175S   26264.54729079 -.00000782  00000+0 -12011-4 0  99922 61259  53.1597   0.5190 0001047  85.8923 274.2200 15.34390684111493

JSON: /api/v1/satellites/61259 · /tle

For live sub-satellite position, see the globe view (requires WebGL).

§ Visibility from observer

Set your observer location to see the next 7 days of passes ≥ 10°. The values pass through the URL so the page stays shareable.

No JS? Fill the form by hand. The geolocation button needs JavaScript.